owner,sensor,date,latitude,longitude,vertical_datum,direction_of_sea_water_velocity,sea_water_speed,upward_sea_water_velocity,qcFlag 
TABS,ioos:station:wmo:42049:1,2008-07-09T02:00:00Z,28.3507,-96.0058,2.0,236.6046318,16.69669728,-99999.0,'11111222,11111222,99999999' 
TABS,ioos:station:wmo:42049:1,2008-07-09T02:30:00Z,28.3507,-96.0058,2.0,231.4289818,10.0404233,-99999.0,'11111222,11111222,99999999' 
TABS,ioos:station:wmo:42049:1,2008-07-09T03:00:00Z,28.3507,-96.0058,2.0,245.9859024,11.35259001,-99999.0,'11111222,11111222,99999999' 
TABS,ioos:station:wmo:42049:1,2008-07-09T03:30:00Z,28.3507,-96.0058,2.0,261.0464916,12.20875096,-99999.0,'11111222,11111222,99999999' 
TABS,ioos:station:wmo:42049:1,2008-07-09T04:00:00Z,28.3507,-96.0058,2.0,262.268878,9.73851118,-99999.0,'11133222,11111222,99999999' 
TABS,ioos:station:wmo:42049:1,2008-07-09T04:30:00Z,28.3507,-96.0058,2.0,255.7248994,11.07184718,-99999.0,'11111222,11111222,99999999' 
TABS,ioos:station:wmo:42049:1,2008-07-09T05:00:00Z,28.3507,-96.0058,2.0,242.316162,10.31023763,-99999.0,'11111222,11111222,99999999' 
TABS,ioos:station:wmo:42049:1,2008-07-09T05:30:00Z,28.3507,-96.0058,2.0,248.6757544,10.91740812,-99999.0,'11111222,11111222,99999999' 
TABS,ioos:station:wmo:42049:1,2008-07-09T06:00:00Z,28.3507,-96.0058,2.0,255.530866,11.5668535,-99999.0,'11111222,11111222,99999999' 
TABS,ioos:station:wmo:42049:1,2008-07-09T06:30:00Z,28.3507,-96.0058,2.0,263.8067167,12.88519305,-99999.0,'11111222,11111222,99999999' 
TABS,ioos:station:wmo:42049:1,2008-07-09T07:00:00Z,28.3507,-96.0058,2.0,263.4253617,11.35466424,-99999.0,'11111222,11111222,99999999' 
TABS,ioos:station:wmo:42049:1,2008-07-09T07:30:00Z,28.3507,-96.0058,2.0,277.0505034,13.28041039,-99999.0,'11111222,11111222,99999999' 
TABS,ioos:station:wmo:42049:1,2008-07-09T08:00:00Z,28.3507,-96.0058,2.0,262.6093456,15.00464261,-99999.0,'11111222,11111222,99999999' 
TABS,ioos:station:wmo:42049:1,2008-07-09T08:30:00Z,28.3507,-96.0058,2.0,247.1506827,16.35320764,-99999.0,'11111222,11111222,99999999' 
TABS,ioos:station:wmo:42049:1,2008-07-09T09:00:00Z,28.3507,-96.0058,2.0,238.882823,14.76436589,-99999.0,'11111222,11111222,99999999' 
TABS,ioos:station:wmo:42049:1,2008-07-09T09:30:00Z,28.3507,-96.0058,2.0,257.8951493,24.75027475,-99999.0,'11111222,11111222,99999999' 
TABS,ioos:station:wmo:42049:1,2008-07-09T10:00:00Z,28.3507,-96.0058,2.0,250.9035413,24.11713499,-99999.0,'11111222,11111222,99999999' 
TABS,ioos:station:wmo:42049:1,2008-07-09T10:30:00Z,28.3507,-96.0058,2.0,246.7639844,22.33128971,-99999.0,'11111222,11111222,99999999' 
TABS,ioos:station:wmo:42049:1,2008-07-09T11:00:00Z,28.3507,-96.0058,2.0,248.8754213,23.72423655,-99999.0,'11111222,11111222,99999999' 
TABS,ioos:station:wmo:42049:1,2008-07-09T11:30:00Z,28.3507,-96.0058,2.0,247.0562167,21.52265086,-99999.0,'11111222,11111222,99999999' 
TABS,ioos:station:wmo:42049:1,2008-07-09T12:00:00Z,28.3507,-96.0058,2.0,245.4264071,24.57581942,-99999.0,'11111222,11111222,99999999' 
TABS,ioos:station:wmo:42049:1,2008-07-09T12:30:00Z,28.3507,-96.0058,2.0,248.484978,20.77771162,-99999.0,'11111222,11111222,99999999' 
TABS,ioos:station:wmo:42049:1,2008-07-09T13:00:00Z,28.3507,-96.0058,2.0,242.7704403,18.90498876,-99999.0,'11111222,11111222,99999999' 
TABS,ioos:station:wmo:42049:1,2008-07-09T13:30:00Z,28.3507,-96.0058,2.0,240.8871276,19.21787189,-99999.0,'11111222,11111222,99999999' 
TABS,ioos:station:wmo:42049:1,2008-07-09T14:00:00Z,28.3507,-96.0058,2.0,233.0929689,18.68400385,-99999.0,'11111222,11111222,99999999' 
TABS,ioos:station:wmo:42049:1,2008-07-09T14:30:00Z,28.3507,-96.0058,2.0,237.3842516,20.11141964,-99999.0,'11111222,11111222,99999999' 
TABS,ioos:station:wmo:42049:1,2008-07-09T15:00:00Z,28.3507,-96.0058,2.0,240.1074871,20.26610224,-99999.0,'11111222,11111222,99999999' 
TABS,ioos:station:wmo:42049:1,2008-07-09T15:30:00Z,28.3507,-96.0058,2.0,237.2954602,18.85982503,-99999.0,'11111222,11111222,99999999' 
TABS,ioos:station:wmo:42049:1,2008-07-09T16:00:00Z,28.3507,-96.0058,2.0,241.4754117,19.62178636,-99999.0,'11111222,11111222,99999999' 
TABS,ioos:station:wmo:42049:1,2008-07-09T16:30:00Z,28.3507,-96.0058,2.0,240.3081649,17.30161264,-99999.0,'11111222,11111222,99999999' 
TABS,ioos:station:wmo:42049:1,2008-07-09T17:00:00Z,28.3507,-96.0058,2.0,242.8989851,16.26586917,-99999.0,'11111222,11111222,99999999' 
TABS,ioos:station:wmo:42049:1,2008-07-09T17:30:00Z,28.3507,-96.0058,2.0,240.3468886,18.51468876,-99999.0,'11111222,11111222,99999999' 
TABS,ioos:station:wmo:42049:1,2008-07-09T18:00:00Z,28.3507,-96.0058,2.0,238.3427889,16.72919604,-99999.0,'11111222,11111222,99999999' 
TABS,ioos:station:wmo:42049:1,2008-07-09T18:30:00Z,28.3507,-96.0058,2.0,248.5338679,19.01924289,-99999.0,'11111222,11111222,99999999' 
TABS,ioos:station:wmo:42049:1,2008-07-09T19:00:00Z,28.3507,-96.0058,2.0,263.3703483,16.19830238,-99999.0,'11111222,11111222,99999999' 
TABS,ioos:station:wmo:42049:1,2008-07-09T19:30:00Z,28.3507,-96.0058,2.0,279.1193017,26.87971726,-99999.0,'11111222,11111222,99999999' 
TABS,ioos:station:wmo:42049:1,2008-07-09T20:00:00Z,28.3507,-96.0058,2.0,288.7052127,34.23836007,-99999.0,'11111222,11111222,99999999' 
TABS,ioos:station:wmo:42049:1,2008-07-09T20:30:00Z,28.3507,-96.0058,2.0,291.167394,35.891538,-99999.0,'11111222,11111222,99999999' 
TABS,ioos:station:wmo:42049:1,2008-07-09T21:00:00Z,28.3507,-96.0058,2.0,294.0201447,36.55552626,-99999.0,'11111222,11111222,99999999' 
TABS,ioos:station:wmo:42049:1,2008-07-09T21:30:00Z,28.3507,-96.0058,2.0,289.4404103,38.75967621,-99999.0,'11111222,11111222,99999999' 
TABS,ioos:station:wmo:42049:1,2008-07-09T22:00:00Z,28.3507,-96.0058,2.0,285.5420648,38.40421982,-99999.0,'11111222,11111222,99999999' 
TABS,ioos:station:wmo:42049:1,2008-07-09T22:30:00Z,28.3507,-96.0058,2.0,288.0485436,35.6017331,-99999.0,'11111222,11111222,99999999' 
TABS,ioos:station:wmo:42049:1,2008-07-09T23:00:00Z,28.3507,-96.0058,2.0,285.9680161,38.93210757,-99999.0,'11111222,11111222,99999999' 
TABS,ioos:station:wmo:42049:1,2008-07-09T23:30:00Z,28.3507,-96.0058,2.0,286.8366531,36.04502185,-99999.0,'11111222,11111222,99999999' 
TABS,ioos:station:wmo:42049:1,2008-07-10T00:00:00Z,28.3507,-96.0058,2.0,289.6409351,34.86866788,-99999.0,'11111222,11111222,99999999' 
TABS,ioos:station:wmo:42049:1,2008-07-10T00:30:00Z,28.3507,-96.0058,2.0,288.5329341,31.55641456,-99999.0,'11111222,11111222,99999999' 
TABS,ioos:station:wmo:42049:1,2008-07-10T01:30:00Z,28.3507,-96.0058,2.0,283.5696607,33.03202386,-99999.0,'11111222,11111222,99999999' 
TABS,ioos:station:wmo:42049:1,2008-07-10T02:00:00Z,28.3507,-96.0058,2.0,278.3404713,31.64465516,-99999.0,'11111222,11111222,99999999' 
TABS,ioos:station:wmo:42049:1,2008-07-10T02:30:00Z,28.3507,-96.0058,2.0,280.717798,28.44620537,-99999.0,'11111222,11111222,99999999' 
TABS,ioos:station:wmo:42049:1,2008-07-10T03:00:00Z,28.3507,-96.0058,2.0,270.8592675,27.35307295,-99999.0,'11111222,11111222,99999999' 
TABS,ioos:station:wmo:42049:1,2008-07-10T03:30:00Z,28.3507,-96.0058,2.0,269.4102251,27.22144008,-99999.0,'11111222,11111222,99999999' 
TABS,ioos:station:wmo:42049:1,2008-07-10T04:00:00Z,28.3507,-96.0058,2.0,271.3446165,25.57703853,-99999.0,'11111222,11111222,99999999' 
TABS,ioos:station:wmo:42049:1,2008-07-10T04:30:00Z,28.3507,-96.0058,2.0,267.8422016,23.37656947,-99999.0,'11111222,11111222,99999999' 
TABS,ioos:station:wmo:42049:1,2008-07-10T05:00:00Z,28.3507,-96.0058,2.0,259.5125427,23.62462486,-99999.0,'11111222,11111222,99999999' 
TABS,ioos:station:wmo:42049:1,2008-07-10T05:30:00Z,28.3507,-96.0058,2.0,260.1853716,21.41337199,-99999.0,'11111222,11111222,99999999' 
TABS,ioos:station:wmo:42049:1,2008-07-10T06:00:00Z,28.3507,-96.0058,2.0,248.6151967,20.15776277,-99999.0,'11111222,11111222,99999999' 
TABS,ioos:station:wmo:42049:1,2008-07-10T06:30:00Z,28.3507,-96.0058,2.0,246.9892567,19.18659949,-99999.0,'11111222,11111222,99999999' 
TABS,ioos:station:wmo:42049:1,2008-07-10T07:00:00Z,28.3507,-96.0058,2.0,239.7747058,17.02436489,-99999.0,'11111222,11111222,99999999' 
TABS,ioos:station:wmo:42049:1,2008-07-10T07:30:00Z,28.3507,-96.0058,2.0,231.1244651,17.03243083,-99999.0,'11111222,11111222,99999999' 
TABS,ioos:station:wmo:42049:1,2008-07-10T08:00:00Z,28.3507,-96.0058,2.0,222.1864954,16.85652693,-99999.0,'11111222,11111222,99999999' 
TABS,ioos:station:wmo:42049:1,2008-07-10T08:30:00Z,28.3507,-96.0058,2.0,223.1941529,18.62736965,-99999.0,'11111222,11111222,99999999' 
TABS,ioos:station:wmo:42049:1,2008-07-10T09:00:00Z,28.3507,-96.0058,2.0,223.2933139,17.57232483,-99999.0,'11111222,11111222,99999999' 
TABS,ioos:station:wmo:42049:1,2008-07-10T09:30:00Z,28.3507,-96.0058,2.0,228.8281887,14.93206282,-99999.0,'11111222,11111222,99999999' 
TABS,ioos:station:wmo:42049:1,2008-07-10T10:00:00Z,28.3507,-96.0058,2.0,246.9416246,13.37885272,-99999.0,'11111222,11111222,99999999' 
TABS,ioos:station:wmo:42049:1,2008-07-10T10:30:00Z,28.3507,-96.0058,2.0,245.5749989,9.81871682,-99999.0,'11133222,11111222,99999999' 
TABS,ioos:station:wmo:42049:1,2008-07-10T11:00:00Z,28.3507,-96.0058,2.0,247.5420427,10.86388973,-99999.0,'11111222,11111222,99999999' 
TABS,ioos:station:wmo:42049:1,2008-07-10T11:30:00Z,28.3507,-96.0058,2.0,238.1497813,8.982455121,-99999.0,'11133222,11111222,99999999' 
TABS,ioos:station:wmo:42049:1,2008-07-10T12:00:00Z,28.3507,-96.0058,2.0,242.7587595,11.75359094,-99999.0,'11111222,11111222,99999999' 
TABS,ioos:station:wmo:42049:1,2008-07-10T12:30:00Z,28.3507,-96.0058,2.0,240.1717904,8.564607405,-99999.0,'11133222,11111222,99999999' 
TABS,ioos:station:wmo:42049:1,2008-07-10T13:00:00Z,28.3507,-96.0058,2.0,226.9205842,10.33663872,-99999.0,'11111222,11111222,99999999' 
TABS,ioos:station:wmo:42049:1,2008-07-10T13:30:00Z,28.3507,-96.0058,2.0,207.6735881,10.39966346,-99999.0,'11111222,11111222,99999999' 
TABS,ioos:station:wmo:42049:1,2008-07-10T14:00:00Z,28.3507,-96.0058,2.0,216.1229271,9.668821024,-99999.0,'11133222,11111222,99999999' 
TABS,ioos:station:wmo:42049:1,2008-07-10T14:30:00Z,28.3507,-96.0058,2.0,218.8011424,10.74010242,-99999.0,'11111222,11111222,99999999' 
TABS,ioos:station:wmo:42049:1,2008-07-10T15:00:00Z,28.3507,-96.0058,2.0,202.3179459,13.58788063,-99999.0,'11111222,11111222,99999999' 
TABS,ioos:station:wmo:42049:1,2008-07-10T15:30:00Z,28.3507,-96.0058,2.0,209.8966535,12.61933833,-99999.0,'11111222,11111222,99999999' 
TABS,ioos:station:wmo:42049:1,2008-07-10T16:00:00Z,28.3507,-96.0058,2.0,205.1938624,13.08474302,-99999.0,'11111222,11111222,99999999' 
TABS,ioos:station:wmo:42049:1,2008-07-10T16:30:00Z,28.3507,-96.0058,2.0,197.4244672,11.12029676,-99999.0,'11111222,11111222,99999999' 
TABS,ioos:station:wmo:42049:1,2008-07-10T17:00:00Z,28.3507,-96.0058,2.0,200.4057714,12.9635219,-99999.0,'11111222,11111222,99999999' 
TABS,ioos:station:wmo:42049:1,2008-07-10T17:30:00Z,28.3507,-96.0058,2.0,212.3448431,13.94345725,-99999.0,'11111222,11111222,99999999' 
TABS,ioos:station:wmo:42049:1,2008-07-10T18:00:00Z,28.3507,-96.0058,2.0,205.8021528,13.43995908,-99999.0,'11111222,11111222,99999999' 
TABS,ioos:station:wmo:42049:1,2008-07-10T18:30:00Z,28.3507,-96.0058,2.0,215.5690668,14.71579084,-99999.0,'11111222,11111222,99999999' 
TABS,ioos:station:wmo:42049:1,2008-07-10T19:00:00Z,28.3507,-96.0058,2.0,219.260709,18.45606946,-99999.0,'11111222,11111222,99999999' 
TABS,ioos:station:wmo:42049:1,2008-07-10T19:30:00Z,28.3507,-96.0058,2.0,221.6822464,17.47360581,-99999.0,'11111222,11111222,99999999' 
TABS,ioos:station:wmo:42049:1,2008-07-10T20:00:00Z,28.3507,-96.0058,2.0,233.4814905,15.9643008,-99999.0,'11111222,11111222,99999999' 
TABS,ioos:station:wmo:42049:1,2008-07-10T20:30:00Z,28.3507,-96.0058,2.0,216.593842,18.28421177,-99999.0,'11111222,11111222,99999999' 
TABS,ioos:station:wmo:42049:1,2008-07-10T21:00:00Z,28.3507,-96.0058,2.0,228.2069549,18.83146569,-99999.0,'11111222,11111222,99999999' 
TABS,ioos:station:wmo:42049:1,2008-07-10T21:30:00Z,28.3507,-96.0058,2.0,228.6350244,21.41185186,-99999.0,'11111222,11111222,99999999' 
TABS,ioos:station:wmo:42049:1,2008-07-10T22:00:00Z,28.3507,-96.0058,2.0,240.841256,21.4479696,-99999.0,'11111222,11111222,99999999' 
TABS,ioos:station:wmo:42049:1,2008-07-10T22:30:00Z,28.3507,-96.0058,2.0,237.519936,20.6144852,-99999.0,'11111222,11111222,99999999' 
TABS,ioos:station:wmo:42049:1,2008-07-10T23:00:00Z,28.3507,-96.0058,2.0,241.5602463,23.79107606,-99999.0,'11111222,11111222,99999999' 
TABS,ioos:station:wmo:42049:1,2008-07-10T23:30:00Z,28.3507,-96.0058,2.0,247.3259539,22.93231781,-99999.0,'11111222,11111222,99999999' 
TABS,ioos:station:wmo:42049:1,2008-07-11T00:00:00Z,28.3507,-96.0058,2.0,249.1462363,23.90597624,-99999.0,'11111222,11111222,99999999' 
TABS,ioos:station:wmo:42049:1,2008-07-11T00:30:00Z,28.3507,-96.0058,2.0,255.483727,24.33687737,-99999.0,'11111222,11111222,99999999' 
TABS,ioos:station:wmo:42049:1,2008-07-11T01:00:00Z,28.3507,-96.0058,2.0,256.8734971,23.51437007,-99999.0,'11111222,11111222,99999999' 
TABS,ioos:station:wmo:42049:1,2008-07-11T01:30:00Z,28.3507,-96.0058,2.0,260.505326,23.5830384,-99999.0,'11111222,11111222,99999999' 
TABS,ioos:station:wmo:42049:1,2008-07-11T02:00:00Z,28.3507,-96.0058,2.0,258.0887385,25.24349619,-99999.0,'11111222,11111222,99999999' 
TABS,ioos:station:wmo:42049:1,2008-07-11T02:30:00Z,28.3507,-96.0058,2.0,264.5158318,26.89308089,-99999.0,'11111222,11111222,99999999' 
TABS,ioos:station:wmo:42049:1,2008-07-11T03:00:00Z,28.3507,-96.0058,2.0,263.8229798,26.30268808,-99999.0,'11111222,11111222,99999999' 
TABS,ioos:station:wmo:42049:1,2008-07-11T03:30:00Z,28.3507,-96.0058,2.0,266.4725827,25.35803029,-99999.0,'11111222,11111222,99999999' 
TABS,ioos:station:wmo:42049:1,2008-07-11T04:00:00Z,28.3507,-96.0058,2.0,270.356982,25.71049786,-99999.0,'11111222,11111222,99999999' 
TABS,ioos:station:wmo:42049:1,2008-07-11T04:30:00Z,28.3507,-96.0058,2.0,268.1239543,25.05342292,-99999.0,'11111222,11111222,99999999' 
TABS,ioos:station:wmo:42049:1,2008-07-11T05:00:00Z,28.3507,-96.0058,2.0,273.5698793,26.02047847,-99999.0,'11111222,11111222,99999999' 
TABS,ioos:station:wmo:42049:1,2008-07-11T05:30:00Z,28.3507,-96.0058,2.0,275.9648941,24.2512845,-99999.0,'11111222,11111222,99999999' 
TABS,ioos:station:wmo:42049:1,2008-07-11T06:00:00Z,28.3507,-96.0058,2.0,274.575238,25.2002877,-99999.0,'11111222,11111222,99999999' 
TABS,ioos:station:wmo:42049:1,2008-07-11T06:30:00Z,28.3507,-96.0058,2.0,281.6572598,22.02424573,-99999.0,'11111222,11111222,99999999' 
TABS,ioos:station:wmo:42049:1,2008-07-11T07:00:00Z,28.3507,-96.0058,2.0,280.8225714,19.81236987,-99999.0,'11111222,11111222,99999999' 
TABS,ioos:station:wmo:42049:1,2008-07-11T07:30:00Z,28.3507,-96.0058,2.0,284.4865691,19.14877803,-99999.0,'11111222,11111222,99999999' 
TABS,ioos:station:wmo:42049:1,2008-07-11T08:00:00Z,28.3507,-96.0058,2.0,286.7711392,16.1154398,-99999.0,'11111222,11111222,99999999' 
TABS,ioos:station:wmo:42049:1,2008-07-11T08:30:00Z,28.3507,-96.0058,2.0,279.5080379,12.47131108,-99999.0,'11111222,11111222,99999999' 
TABS,ioos:station:wmo:42049:1,2008-07-11T09:00:00Z,28.3507,-96.0058,2.0,276.738072,10.82475866,-99999.0,'11111222,11111222,99999999' 
TABS,ioos:station:wmo:42049:1,2008-07-11T09:30:00Z,28.3507,-96.0058,2.0,270.9784187,11.13162162,-99999.0,'11111222,11111222,99999999' 
TABS,ioos:station:wmo:42049:1,2008-07-11T10:00:00Z,28.3507,-96.0058,2.0,294.0106059,8.527895403,-99999.0,'11133222,11111222,99999999' 
TABS,ioos:station:wmo:42049:1,2008-07-11T10:30:00Z,28.3507,-96.0058,2.0,283.5443661,5.081308886,-99999.0,'11133222,11111222,99999999' 
TABS,ioos:station:wmo:42049:1,2008-07-11T11:00:00Z,28.3507,-96.0058,2.0,252.9426534,6.443423003,-99999.0,'11133222,11111222,99999999' 
TABS,ioos:station:wmo:42049:1,2008-07-11T11:30:00Z,28.3507,-96.0058,2.0,259.5918921,4.483770735,-99999.0,'11133222,11111222,99999999' 
TABS,ioos:station:wmo:42049:1,2008-07-11T12:00:00Z,28.3507,-96.0058,2.0,353.6600335,0.452769257,-99999.0,'11133222,11111222,99999999' 
TABS,ioos:station:wmo:42049:1,2008-07-11T12:30:00Z,28.3507,-96.0058,2.0,263.3209011,4.299174339,-99999.0,'11133222,11111222,99999999' 
TABS,ioos:station:wmo:42049:1,2008-07-11T13:00:00Z,28.3507,-96.0058,2.0,207.6919213,5.228938707,-99999.0,'11133222,11111222,99999999' 
TABS,ioos:station:wmo:42049:1,2008-07-11T13:30:00Z,28.3507,-96.0058,2.0,193.9429879,5.976085675,-99999.0,'11133222,11111222,99999999' 
TABS,ioos:station:wmo:42049:1,2008-07-11T14:00:00Z,28.3507,-96.0058,2.0,190.3701445,10.1660661,-99999.0,'11111222,11111222,99999999' 
TABS,ioos:station:wmo:42049:1,2008-07-11T14:30:00Z,28.3507,-96.0058,2.0,185.7925725,11.7902078,-99999.0,'11111222,11111222,99999999' 
TABS,ioos:station:wmo:42049:1,2008-07-11T15:00:00Z,28.3507,-96.0058,2.0,172.6949689,15.80830478,-99999.0,'11111222,11111222,99999999' 
TABS,ioos:station:wmo:42049:1,2008-07-11T15:30:00Z,28.3507,-96.0058,2.0,177.2674889,13.63550146,-99999.0,'11111222,11111222,99999999' 
TABS,ioos:station:wmo:42049:1,2008-07-11T16:00:00Z,28.3507,-96.0058,2.0,175.7058931,18.03061008,-99999.0,'11111222,11111222,99999999' 
TABS,ioos:station:wmo:42049:1,2008-07-11T16:30:00Z,28.3507,-96.0058,2.0,170.3141365,17.71248147,-99999.0,'11111222,11111222,99999999' 
TABS,ioos:station:wmo:42049:1,2008-07-11T17:00:00Z,28.3507,-96.0058,2.0,176.0058252,17.37219042,-99999.0,'11111222,11111222,99999999' 
TABS,ioos:station:wmo:42049:1,2008-07-11T17:30:00Z,28.3507,-96.0058,2.0,173.9174671,19.63050687,-99999.0,'11111222,11111222,99999999' 
TABS,ioos:station:wmo:42049:1,2008-07-11T18:00:00Z,28.3507,-96.0058,2.0,183.1150447,19.68909597,-99999.0,'11111222,11111222,99999999' 
TABS,ioos:station:wmo:42049:1,2008-07-11T18:30:00Z,28.3507,-96.0058,2.0,196.2974642,20.77480445,-99999.0,'11111222,11111222,99999999' 
TABS,ioos:station:wmo:42049:1,2008-07-11T19:00:00Z,28.3507,-96.0058,2.0,196.0235762,20.0697708,-99999.0,'11111222,11111222,99999999' 
TABS,ioos:station:wmo:42049:1,2008-07-11T19:30:00Z,28.3507,-96.0058,2.0,207.7728942,18.24142538,-99999.0,'11111222,11111222,99999999' 
TABS,ioos:station:wmo:42049:1,2008-07-11T20:00:00Z,28.3507,-96.0058,2.0,220.0133622,15.86387405,-99999.0,'11111222,11111222,99999999' 
TABS,ioos:station:wmo:42049:1,2008-07-11T20:30:00Z,28.3507,-96.0058,2.0,214.5382413,19.66627824,-99999.0,'11111222,11111222,99999999' 
TABS,ioos:station:wmo:42049:1,2008-07-11T21:00:00Z,28.3507,-96.0058,2.0,225.8793948,14.73784245,-99999.0,'11111222,11111222,99999999' 
TABS,ioos:station:wmo:42049:1,2008-07-11T21:30:00Z,28.3507,-96.0058,2.0,228.5810461,15.05542095,-99999.0,'11111222,11111222,99999999' 
TABS,ioos:station:wmo:42049:1,2008-07-11T22:00:00Z,28.3507,-96.0058,2.0,248.4576174,13.53547192,-99999.0,'11111222,11111222,99999999' 
TABS,ioos:station:wmo:42049:1,2008-07-11T22:30:00Z,28.3507,-96.0058,2.0,249.9808655,15.10248324,-99999.0,'11111222,11111222,99999999' 
TABS,ioos:station:wmo:42049:1,2008-07-11T23:00:00Z,28.3507,-96.0058,2.0,252.9491571,15.31305652,-99999.0,'11111222,11111222,99999999' 
TABS,ioos:station:wmo:42049:1,2008-07-11T23:30:00Z,28.3507,-96.0058,2.0,254.9887513,14.40142354,-99999.0,'11111222,11111222,99999999' 
TABS,ioos:station:wmo:42049:1,2008-07-12T00:00:00Z,28.3507,-96.0058,2.0,262.083712,16.26498386,-99999.0,'11111222,11111222,99999999' 
TABS,ioos:station:wmo:42049:1,2008-07-12T00:30:00Z,28.3507,-96.0058,2.0,270.0004209,17.0,-99999.0,'11111222,11111222,99999999' 
TABS,ioos:station:wmo:42049:1,2008-07-12T01:00:00Z,28.3507,-96.0058,2.0,275.2623966,18.42765856,-99999.0,'11111222,11111222,99999999' 
TABS,ioos:station:wmo:42049:1,2008-07-12T01:30:00Z,28.3507,-96.0058,2.0,284.7285743,17.07090214,-99999.0,'11111222,11111222,99999999' 
TABS,ioos:station:wmo:42049:1,2008-07-12T02:00:00Z,28.3507,-96.0058,2.0,290.7127548,17.58666825,-99999.0,'11111222,11111222,99999999' 
TABS,ioos:station:wmo:42049:1,2008-07-12T02:30:00Z,28.3507,-96.0058,2.0,296.1176623,14.87925065,-99999.0,'11111222,11111222,99999999' 
TABS,ioos:station:wmo:42049:1,2008-07-12T03:00:00Z,28.3507,-96.0058,2.0,299.9993649,15.38045838,-99999.0,'11111222,11111222,99999999' 
TABS,ioos:station:wmo:42049:1,2008-07-12T03:30:00Z,28.3507,-96.0058,2.0,298.3652354,14.52371853,-99999.0,'11111222,11111222,99999999' 
TABS,ioos:station:wmo:42049:1,2008-07-12T04:00:00Z,28.3507,-96.0058,2.0,301.9953656,11.72039675,-99999.0,'11111222,11111222,99999999' 
TABS,ioos:station:wmo:42049:1,2008-07-12T04:30:00Z,28.3507,-96.0058,2.0,304.996899,10.3395261,-99999.0,'11111222,11111222,99999999' 
TABS,ioos:station:wmo:42049:1,2008-07-12T05:00:00Z,28.3507,-96.0058,2.0,305.0405621,10.71146115,-99999.0,'11111222,11111222,99999999' 
TABS,ioos:station:wmo:42049:1,2008-07-12T05:30:00Z,28.3507,-96.0058,2.0,315.4376785,9.263368718,-99999.0,'11133222,11111222,99999999' 
TABS,ioos:station:wmo:42049:1,2008-07-12T06:00:00Z,28.3507,-96.0058,2.0,317.5610264,7.913355799,-99999.0,'11133222,11111222,99999999' 
TABS,ioos:station:wmo:42049:1,2008-07-12T06:30:00Z,28.3507,-96.0058,2.0,320.0505323,9.157226654,-99999.0,'11133222,11111222,99999999' 
TABS,ioos:station:wmo:42049:1,2008-07-12T07:00:00Z,28.3507,-96.0058,2.0,339.0610405,9.625679197,-99999.0,'11133222,11111222,99999999' 
TABS,ioos:station:wmo:42049:1,2008-07-12T07:30:00Z,28.3507,-96.0058,2.0,352.4670406,8.009126045,-99999.0,'11133222,11111222,99999999' 
TABS,ioos:station:wmo:42049:1,2008-07-12T08:00:00Z,28.3507,-96.0058,2.0,327.9949021,1.037737925,-99999.0,'11133222,11111222,99999999' 
TABS,ioos:station:wmo:42049:1,2008-07-12T08:30:00Z,28.3507,-96.0058,2.0,9.865994331,5.135951713,-99999.0,'11133222,11111222,99999999' 
TABS,ioos:station:wmo:42049:1,2008-07-12T09:00:00Z,28.3507,-96.0058,2.0,5.144075225,5.130662725,-99999.0,'11133222,11111222,99999999' 
TABS,ioos:station:wmo:42049:1,2008-07-12T09:30:00Z,28.3507,-96.0058,2.0,45.22837353,3.549704213,-99999.0,'11133222,11111222,99999999' 
TABS,ioos:station:wmo:42049:1,2008-07-12T10:00:00Z,28.3507,-96.0058,2.0,53.08505613,5.078001575,-99999.0,'11133222,11111222,99999999' 
TABS,ioos:station:wmo:42049:1,2008-07-12T10:30:00Z,28.3507,-96.0058,2.0,49.78780452,5.591511424,-99999.0,'11133222,11111222,99999999' 
TABS,ioos:station:wmo:42049:1,2008-07-12T11:00:00Z,28.3507,-96.0058,2.0,67.27032107,6.418473339,-99999.0,'11133222,11111222,99999999' 
TABS,ioos:station:wmo:42049:1,2008-07-12T11:30:00Z,28.3507,-96.0058,2.0,79.12113945,6.517123599,-99999.0,'11133222,11111222,99999999' 
TABS,ioos:station:wmo:42049:1,2008-07-12T12:00:00Z,28.3507,-96.0058,2.0,88.66950163,7.752090041,-99999.0,'11133222,11111222,99999999' 
TABS,ioos:station:wmo:42049:1,2008-07-12T12:30:00Z,28.3507,-96.0058,2.0,92.8936287,7.329345128,-99999.0,'11133222,11111222,99999999' 
TABS,ioos:station:wmo:42049:1,2008-07-12T13:00:00Z,28.3507,-96.0058,2.0,125.1085596,10.86713394,-99999.0,'11111222,11111222,99999999' 
TABS,ioos:station:wmo:42049:1,2008-07-12T13:30:00Z,28.3507,-96.0058,2.0,131.5694708,12.64451264,-99999.0,'11111222,11111222,99999999' 
TABS,ioos:station:wmo:42049:1,2008-07-12T14:00:00Z,28.3507,-96.0058,2.0,149.6662796,11.22697644,-99999.0,'11111222,11111222,99999999' 
TABS,ioos:station:wmo:42049:1,2008-07-12T14:30:00Z,28.3507,-96.0058,2.0,150.8060514,11.99347323,-99999.0,'11111222,11111222,99999999' 
TABS,ioos:station:wmo:42049:1,2008-07-12T15:00:00Z,28.3507,-96.0058,2.0,146.9504216,13.14721644,-99999.0,'11111222,11111222,99999999' 
TABS,ioos:station:wmo:42049:1,2008-07-12T15:30:00Z,28.3507,-96.0058,2.0,157.8688851,13.88281312,-99999.0,'11111222,11111222,99999999' 
TABS,ioos:station:wmo:42049:1,2008-07-12T16:00:00Z,28.3507,-96.0058,2.0,149.2092945,13.04938696,-99999.0,'11111222,11111222,99999999' 
TABS,ioos:station:wmo:42049:1,2008-07-12T16:30:00Z,28.3507,-96.0058,2.0,158.3573993,12.7164657,-99999.0,'11111222,11111222,99999999' 
TABS,ioos:station:wmo:42049:1,2008-07-12T17:00:00Z,28.3507,-96.0058,2.0,174.5177687,11.72362145,-99999.0,'11111222,11111222,99999999' 
TABS,ioos:station:wmo:42049:1,2008-07-12T17:30:00Z,28.3507,-96.0058,2.0,172.7208731,9.23441931,-99999.0,'11133222,11111222,99999999' 
TABS,ioos:station:wmo:42049:1,2008-07-12T18:00:00Z,28.3507,-96.0058,2.0,171.4690439,8.898449303,-99999.0,'11133222,11111222,99999999' 
TABS,ioos:station:wmo:42049:1,2008-07-12T18:30:00Z,28.3507,-96.0058,2.0,177.8974756,7.905320993,-99999.0,'11133222,11111222,99999999' 